{"data":{"norad_id":63020,"intl_designator":"2025-032R","name":"STARLINK-32677","alt_names":[],"object_type":"PAYLOAD","status":"ACTIVE","operator":null,"country":"US","launch_date":"2025-02-15","launch_site_code":"AFETR","launch_vehicle":null,"mission":null,"orbit_class":"UNKNOWN","rcs_meters":null,"size_class":null,"mass_kg":null,"dimensions":null,"purposes":["comms"],"wikipedia_slug":null,"has_3d_model":false,"image_url":null,"decayed_at":null,"tle_current":{"epoch":"2026-09-21T03:54:33.861888Z","epoch_age_seconds":108142,"freshness":"FRESH","line1":"1 63020U 25032R   26264.16289192  .00006460  00000+0  24404-3 0  9993","line2":"2 63020  42.9944 312.2441 0000812 145.6208 214.4697 15.27581717 90500","mean_motion":15.27581717,"eccentricity":8.12e-5,"inclination_deg":42.9944,"raan_deg":312.2441,"arg_perigee_deg":145.6208,"mean_anomaly_deg":214.4697,"bstar":0.00024404,"rev_number":9050,"period_min":94.26664275794,"perigee_km":482.48682683526,"apogee_km":483.6010826223,"semimajor_km":6861.1809547288,"source":"CELESTRAK","updated_at":"2026-09-22T09:00:49.741807Z"}}}